AAL1362 KLAX-KPHX

Flight info

Callsign AAL1362
Flight time 0h 59m
Altitude 37000
Route DOTSS2 CNERY BLH HYDRR1
Aircraft B738/M-SDE2E3FGHIRWXY/LB1

Departure

Time 2026-05-04 10:23
Airport Los Angeles International Airport (KLAX)

Arrival

Time 2026-05-04 11:22
Airport Phoenix Sky Harbor International Airport (KPHX)
Time Latitude Longitude Altitude Speed Heading
2026-05-04 09:49 33.94040 -118.40616 92 ft 0 kts 266°
2026-05-04 10:08 33.94043 -118.40591 101 ft 4 kts 250°
2026-05-04 10:08 33.94057 -118.40566 94 ft 4 kts 207°
2026-05-04 10:08 33.94075 -118.40561 93 ft 1 kts 173°
2026-05-04 10:08 33.94078 -118.40561 92 ft 0 kts 173°
2026-05-04 10:12 33.94040 -118.40555 93 ft 10 kts 173°
2026-05-04 10:12 33.93964 -118.40544 92 ft 11 kts 173°
2026-05-04 10:13 33.93890 -118.40534 94 ft 11 kts 173°
2026-05-04 10:13 33.93846 -118.40524 93 ft 8 kts 156°
2026-05-04 10:13 33.93831 -118.40467 94 ft 8 kts 86°
2026-05-04 10:13 33.93841 -118.40361 96 ft 11 kts 83°
2026-05-04 10:14 33.93851 -118.40269 95 ft 11 kts 82°
2026-05-04 10:14 33.93860 -118.40180 95 ft 11 kts 82°
2026-05-04 10:16 33.93914 -118.39646 95 ft 9 kts 83°
2026-05-04 10:16 33.93922 -118.39569 94 ft 12 kts 83°
2026-05-04 10:16 33.93933 -118.39455 93 ft 14 kts 83°
2026-05-04 10:16 33.93945 -118.39341 93 ft 13 kts 83°
2026-05-04 10:17 33.93957 -118.39233 94 ft 13 kts 82°
2026-05-04 10:17 33.93969 -118.39127 94 ft 13 kts 82°
2026-05-04 10:19 33.94035 -118.38469 96 ft 12 kts 83°
2026-05-04 10:19 33.94043 -118.38371 96 ft 10 kts 95°
2026-05-04 10:19 33.93995 -118.38328 98 ft 6 kts 171°
2026-05-04 10:19 33.93969 -118.38328 99 ft 6 kts 191°
2026-05-04 10:20 33.93947 -118.38365 98 ft 6 kts 259°
2026-05-04 10:20 33.93947 -118.38378 98 ft 2 kts 267°
2026-05-04 10:22 33.93907 -118.38770 94 ft 82 kts 263°
2026-05-04 10:22 33.93809 -118.39727 100 ft 145 kts 263°
2026-05-04 10:22 33.93679 -118.41094 413 ft 173 kts 263°
2026-05-04 10:23 33.93566 -118.42493 1434 ft 164 kts 264°
2026-05-04 10:23 33.93409 -118.43950 1958 ft 187 kts 262°
2026-05-04 10:25 33.86642 -118.55144 6454 ft 266 kts 215°
2026-05-04 10:25 33.84918 -118.55901 7299 ft 273 kts 189°
2026-05-04 10:25 33.83013 -118.55758 8209 ft 278 kts 171°
2026-05-04 10:25 33.81111 -118.55236 9149 ft 282 kts 170°
2026-05-04 10:26 33.79188 -118.54679 10072 ft 286 kts 171°
2026-05-04 10:26 33.77187 -118.54115 10655 ft 302 kts 171°
2026-05-04 10:26 33.75079 -118.53540 10915 ft 327 kts 171°
2026-05-04 10:26 33.72815 -118.52917 11517 ft 339 kts 169°
2026-05-04 10:27 33.70652 -118.51677 12266 ft 354 kts 146°
2026-05-04 10:27 33.68986 -118.49447 13047 ft 368 kts 125°
2026-05-04 10:27 33.67971 -118.46580 13802 ft 378 kts 114°
2026-05-04 10:27 33.67128 -118.43564 14402 ft 384 kts 113°
2026-05-04 10:28 33.66269 -118.40494 14957 ft 391 kts 114°
2026-05-04 10:28 33.65367 -118.37383 15530 ft 397 kts 115°
2026-05-04 10:28 33.64504 -118.34206 16069 ft 408 kts 107°
2026-05-04 10:28 33.64294 -118.30743 16613 ft 421 kts 94°
2026-05-04 10:29 33.64333 -118.27204 17188 ft 427 kts 93°
2026-05-04 10:29 33.64385 -118.23609 17713 ft 434 kts 93°
2026-05-04 10:29 33.64426 -118.19965 18247 ft 440 kts 94°
2026-05-04 10:29 33.64451 -118.16275 18730 ft 444 kts 94°
2026-05-04 10:30 33.64462 -118.12550 19233 ft 448 kts 95°
2026-05-04 10:30 33.64464 -118.08793 19759 ft 451 kts 95°
2026-05-04 10:30 33.64461 -118.05060 20278 ft 454 kts 95°
2026-05-04 10:30 33.64455 -118.01257 20812 ft 458 kts 95°
2026-05-04 10:31 33.64448 -117.97421 21301 ft 462 kts 96°
2026-05-04 10:31 33.64441 -117.93551 21769 ft 466 kts 96°
2026-05-04 10:32 33.62296 -117.70452 24382 ft 465 kts 116°
2026-05-04 10:33 33.61319 -117.66730 24728 ft 470 kts 116°
2026-05-04 10:33 33.60350 -117.62977 25085 ft 474 kts 116°
2026-05-04 10:33 33.59391 -117.59181 25457 ft 477 kts 116°
2026-05-04 10:33 33.58437 -117.55354 25834 ft 479 kts 116°
2026-05-04 10:34 33.57486 -117.51508 26192 ft 483 kts 116°
2026-05-04 10:34 33.56529 -117.47637 26541 ft 486 kts 116°
2026-05-04 10:34 33.55565 -117.43743 26831 ft 489 kts 116°
2026-05-04 10:34 33.54590 -117.39812 27160 ft 492 kts 116°
2026-05-04 10:35 33.53610 -117.35869 27471 ft 495 kts 116°
2026-05-04 10:35 33.52621 -117.31898 27788 ft 497 kts 116°
2026-05-04 10:35 33.51627 -117.27917 28099 ft 500 kts 116°
2026-05-04 10:35 33.50648 -117.23914 28407 ft 505 kts 112°
2026-05-04 10:36 33.50199 -117.19658 28652 ft 524 kts 98°
2026-05-04 10:36 33.50156 -117.15280 28968 ft 527 kts 96°
2026-05-04 10:36 33.50170 -117.10875 29300 ft 529 kts 96°
2026-05-04 10:36 33.50185 -117.06458 29590 ft 531 kts 96°
2026-05-04 10:37 33.50175 -117.02025 29854 ft 534 kts 97°
2026-05-04 10:37 33.50139 -116.97571 30106 ft 536 kts 97°
2026-05-04 10:37 33.50081 -116.93097 30332 ft 538 kts 98°
2026-05-04 10:37 33.50012 -116.88598 30537 ft 541 kts 98°
2026-05-04 10:39 33.49562 -116.61740 32202 ft 543 kts 97°
2026-05-04 10:39 33.49484 -116.57221 32463 ft 543 kts 97°
2026-05-04 10:39 33.49403 -116.52685 32669 ft 546 kts 97°
2026-05-04 10:40 33.49321 -116.48126 32868 ft 548 kts 97°
2026-05-04 10:40 33.49237 -116.43572 33180 ft 547 kts 97°
2026-05-04 10:40 33.49158 -116.39013 33542 ft 546 kts 97°
2026-05-04 10:40 33.49090 -116.34464 33835 ft 547 kts 97°
2026-05-04 10:41 33.49025 -116.29901 34074 ft 547 kts 96°
2026-05-04 10:41 33.48959 -116.25340 34225 ft 549 kts 97°
2026-05-04 10:41 33.48889 -116.20753 34307 ft 553 kts 97°
2026-05-04 10:41 33.48815 -116.16126 34491 ft 555 kts 96°
2026-05-04 10:42 33.48742 -116.11510 34736 ft 555 kts 96°
2026-05-04 10:42 33.48665 -116.06889 34957 ft 555 kts 96°
2026-05-04 10:42 33.48879 -116.02258 35135 ft 563 kts 81°
2026-05-04 10:42 33.49998 -115.97749 35369 ft 565 kts 70°
2026-05-04 10:43 33.51373 -115.93347 35601 ft 564 kts 69°
2026-05-04 10:44 33.60538 -115.62551 36894 ft 559 kts 70°
2026-05-04 10:45 33.61664 -115.58092 36862 ft 556 kts 82°
2026-05-04 10:45 33.61926 -115.53526 36907 ft 545 kts 97°
2026-05-04 10:45 33.61764 -115.48990 36894 ft 544 kts 98°
2026-05-04 10:46 33.61397 -115.39928 36887 ft 543 kts 97°
2026-05-04 10:46 33.61113 -115.30925 36875 ft 543 kts 96°
2026-05-04 10:47 33.60879 -115.21862 36867 ft 544 kts 96°
2026-05-04 10:47 33.60646 -115.12763 36874 ft 546 kts 96°
2026-05-04 10:49 33.59569 -114.75878 33274 ft 558 kts 100°
2026-05-04 10:49 33.58991 -114.71322 32616 ft 549 kts 109°
2026-05-04 10:50 33.58128 -114.66878 31972 ft 546 kts 111°
2026-05-04 10:51 33.51863 -114.36448 28037 ft 522 kts 110°
2026-05-04 10:52 33.51042 -114.32236 27528 ft 516 kts 110°
2026-05-04 10:52 33.50223 -114.28069 27049 ft 511 kts 110°
2026-05-04 10:52 33.49407 -114.23942 26539 ft 507 kts 110°
2026-05-04 10:54 33.43903 -113.96345 24044 ft 462 kts 111°
2026-05-04 10:54 33.43157 -113.92636 23769 ft 456 kts 111°
2026-05-04 10:56 33.37973 -113.66928 21583 ft 444 kts 110°
2026-05-04 10:56 33.37248 -113.63355 21309 ft 441 kts 110°
2026-05-04 10:56 33.36526 -113.59807 21027 ft 438 kts 110°
2026-05-04 10:57 33.35806 -113.56271 20728 ft 436 kts 110°
2026-05-04 10:57 33.35080 -113.52712 20429 ft 434 kts 109°
2026-05-04 10:57 33.34366 -113.49213 20148 ft 432 kts 109°
2026-05-04 10:57 33.33655 -113.45734 19864 ft 430 kts 109°
2026-05-04 10:58 33.33010 -113.42285 19507 ft 430 kts 107°
2026-05-04 10:58 33.32418 -113.38784 19221 ft 429 kts 106°
2026-05-04 10:58 33.31840 -113.35290 18940 ft 426 kts 106°
2026-05-04 10:58 33.31258 -113.31815 18674 ft 424 kts 106°
2026-05-04 10:59 33.30669 -113.28370 18393 ft 422 kts 106°
2026-05-04 10:59 33.30075 -113.24945 18105 ft 419 kts 106°
2026-05-04 10:59 33.29492 -113.21546 17804 ft 416 kts 105°
2026-05-04 10:59 33.28996 -113.18157 17558 ft 411 kts 103°
2026-05-04 11:00 33.28541 -113.14809 17313 ft 407 kts 104°
2026-05-04 11:01 33.27760 -112.93416 15663 ft 372 kts 91°
2026-05-04 11:02 33.27852 -112.90332 15429 ft 370 kts 91°
2026-05-04 11:02 33.27931 -112.87269 15197 ft 366 kts 92°
2026-05-04 11:05 33.31265 -112.47766 11996 ft 324 kts 88°
2026-05-04 11:06 33.31511 -112.45093 11777 ft 323 kts 88°
2026-05-04 11:06 33.31755 -112.42429 11564 ft 321 kts 88°
2026-05-04 11:06 33.31998 -112.39779 11354 ft 319 kts 88°
2026-05-04 11:06 33.32238 -112.37145 11149 ft 318 kts 88°
2026-05-04 11:08 33.33860 -112.19340 9726 ft 295 kts 88°
2026-05-04 11:10 33.34721 -112.03091 8180 ft 271 kts 96°
2026-05-04 11:12 33.34416 -111.87169 5887 ft 283 kts 91°
2026-05-04 11:12 33.34458 -111.86155 5739 ft 284 kts 90°
2026-05-04 11:14 33.34546 -111.84364 5503 ft 284 kts 90°
2026-05-04 11:14 33.34667 -111.82011 5231 ft 282 kts 90°
2026-05-04 11:14 33.34790 -111.79686 5027 ft 278 kts 89°
2026-05-04 11:16 33.41648 -111.73897 4012 ft 229 kts 295°
2026-05-04 11:16 33.42166 -111.75651 4007 ft 221 kts 277°
2026-05-04 11:16 33.42411 -111.77448 4018 ft 218 kts 275°
2026-05-04 11:17 33.42630 -111.79243 4046 ft 219 kts 275°
2026-05-04 11:17 33.42836 -111.81035 4014 ft 213 kts 271°
2026-05-04 11:19 33.42885 -111.91588 2529 ft 157 kts 265°
2026-05-04 11:19 33.42884 -111.92891 2333 ft 158 kts 265°
2026-05-04 11:19 33.42884 -111.94215 2146 ft 160 kts 266°
2026-05-04 11:19 33.42884 -111.95529 1913 ft 156 kts 268°
2026-05-04 11:20 33.42882 -111.96821 1744 ft 155 kts 266°
2026-05-04 11:20 33.42863 -111.98077 1540 ft 152 kts 270°
2026-05-04 11:20 33.42887 -111.99341 1309 ft 151 kts 269°
2026-05-04 11:20 33.42886 -112.00565 1132 ft 139 kts 271°
2026-05-04 11:22 33.43000 -112.02130 1116 ft 7 kts 99°
2026-05-04 11:22 33.42996 -112.02069 1118 ft 9 kts 94°
2026-05-04 11:23 33.42995 -112.01985 1124 ft 11 kts 85°
2026-05-04 11:23 33.42996 -112.01897 1119 ft 10 kts 92°
2026-05-04 11:24 33.42994 -112.01415 1121 ft 9 kts 90°
2026-05-04 11:25 33.42993 -112.01342 1126 ft 9 kts 90°
2026-05-04 11:25 33.42993 -112.01271 1125 ft 8 kts 89°
2026-05-04 11:25 33.42994 -112.01230 1125 ft 0 kts 89°
2026-05-04 11:26 33.42994 -112.01184 1125 ft 9 kts 89°
2026-05-04 11:27 33.42994 -112.00573 1120 ft 13 kts 90°
2026-05-04 11:28 33.42994 -112.00466 1126 ft 13 kts 90°
2026-05-04 11:28 33.42995 -112.00368 1121 ft 11 kts 90°
2026-05-04 11:28 33.43025 -112.00300 1119 ft 9 kts 14°
2026-05-04 11:28 33.43086 -112.00308 1133 ft 9 kts 352°
2026-05-04 11:29 33.43145 -112.00318 1135 ft 9 kts 352°
2026-05-04 11:29 33.43209 -112.00350 1120 ft 12 kts 315°
2026-05-04 11:29 33.43278 -112.00379 1122 ft 11 kts
2026-05-04 11:29 33.43354 -112.00380 1119 ft 11 kts 359°
2026-05-04 11:31 33.43771 -112.00312 1123 ft 1 kts 95°
2026-05-04 11:33 33.43771 -112.00243 1123 ft 0 kts 90°